Regional Weather Roundup
Issued by NWS

Home | Current Version | Previous Version | Graphics & Text | Print | Product List | Glossary On
Versions: 1 2 3 4 5 6 7 8 9 10 11 12 13 14 15 16 17 18 19 20 21 22 23 24 25 26 27 28 29 30 31 32 33 34 35 36 37 38 39 40 41 42 43 44 45 46 47 48 49 50
000
ASUS43 KBIS 011910
RWRND

NORTH DAKOTA REGIONAL WEATHER ROUNDUP
NATIONAL WEATHER SERVICE BISMARCK ND
200 PM CDT SAT AUG 01 2015

NOTE: "FAIR" INDICATES FEW OR NO CLOUDS BELOW 12,000 FEET WITH NO
SIGNIFICANT WEATHER AND/OR OBSTRUCTIONS TO VISIBILITY.


NDZ001>003-009>011-017-012000-
NORTHWEST NORTH DAKOTA

CITY           SKY/WX    TMP DP  RH WIND       PRES   REMARKS
WILLISTON      SUNNY     89  54  30 SW6       29.85F
MINOT          SUNNY     87  48  25 SE7       29.84F
MINOT AFB      SUNNY     89  52  28 SW8       29.83F
$$

NDZ018>021-031>035-040>046-012000-
SOUTHWEST NORTH DAKOTA

CITY           SKY/WX    TMP DP  RH WIND       PRES   REMARKS
BISMARCK       SUNNY     86  59  39 N8        29.84F
DICKINSON      SUNNY     89  47  23 VRB7      29.90F
GARRISON         N/A     82  57  42 CALM      29.86F
HETTINGER ARPT SUNNY     91  42  18 NW14      29.94F
$$

NDZ004>008-012>016-024-026-027-054-012000-
NORTHEAST NORTH DAKOTA

CITY           SKY/WX    TMP DP  RH WIND       PRES   REMARKS
GRAND FORKS    MOSUNNY   84  54  35 SW10      29.82F
GRND FRKS AFB  SUNNY     83  57  41 VRB5      29.83F
DEVILS LAKE    SUNNY     82  55  39 SW9       29.83F
$$

NDZ022-023-025-028>030-036>039-047>053-012000-
SOUTHEAST NORTH DAKOTA

CITY           SKY/WX    TMP DP  RH WIND       PRES   REMARKS
FARGO          MOSUNNY   84  58  40 SE10      29.84F
JAMESTOWN      SUNNY     84  61  45 S10       29.85F
$$



USA.gov is the U.S. government's official web portal to all federal, state and local government web resources and services.